Location: Erdweis
(48.5167°N, 15.3500°E)
Time: 15:31:19
(UTC+00:00)

NOSS 2-2 (C) - Pass Details

Date: 26 January 2021
Orbit: 463 x 1745 km, 63.3° (Epoch: 03 March)

Event Time Altitude Azimuth Distance (km) Brightness Sun altitude
Rises 20:44:08 0° 308° (NW) 3,300 8.0 -47.8°
Reaches altitude 10° 20:46:41 10° 295° (WNW) 2,549 7.2 -48.1°
Enters shadow 20:46:49 11° 294° (WNW) 2,514 7.2 -48.2°
